Weather History for KIEN - November, 2012

Change the Weather History Date:

Sunday, November 25, 2012

  Actual Average Record
Temperature  
Mean Temperature 34 °F 29 °F  
Max Temperature 39 °F 42 °F - ()
Min Temperature 28 °F 16 °F - ()
Degree Days  
Heating Degree Days 31 36  
Month to date heating degree days 651 748  
Since 1 July heating degree days 1398 1503  
Cooling Degree Days 0 0  
Month to date cooling degree days 0 0  
Year to date cooling degree days 1103 717  
Moisture  
Dew Point 31 °F    
Average Humidity 82    
Maximum Humidity 100    
Minimum Humidity 64    
Precipitation  
Precipitation 0.37 in 0.01 in - ()
Month to date precipitation 0.48 0.52  
Year to date precipitation 10.71 17.12  
Sea Level Pressure  
Sea Level Pressure 30.01 in    
Wind  
Wind Speed 5 mph (ENE)    
Max Wind Speed 15 mph    
Max Gust Speed 18 mph    
Visibility 4 miles    
Events Rain , Snow    
T = Trace of Precipitation, MM = Missing Value Source: NWS Daily Summary

Daily Weather History Graph

Daily Weather History Graph

Search for Another Location

Airport or City:

Trip Planner

Search our weather history database for the weather conditions in past years. The results will help you decide how hot, cold, wet, or windy it might be!

Date:

Astronomy

Nov. 25, 2012 Rise Set
Actual Time 6:55 AM MST 4:18 PM MST
Civil Twilight 6:24 AM MST 4:50 PM MST
Nautical Twilight 5:49 AM MST 5:25 PM MST
Astronomical Twilight 5:15 AM MST 5:59 PM MST
Moon 2:39 PM MST (11/25) 4:08 AM MST (11/25)
Length of Visible Light 10h 26m
Length of Day
9h 23m
Waxing Gibbous, 93% of the Moon is Illuminated
Nov 25
Waxing Gibbous
Nov 28
Full
Dec 6
Last Quarter
Dec 13
New
Dec 19
First Quarter

Hourly Weather History & Observations

Time (MST) Temp. Windchill Dew Point Humidity Pressure Visibility Wind Dir Wind Speed Gust Speed Precip Events Conditions
12:52 AM 37.0 °F - 28.0 °F 70% 29.97 in 10.0 mi Calm Calm - N/A   Overcast
1:52 AM 37.0 °F - 30.0 °F 76% 29.97 in 10.0 mi Calm Calm - 0.00 in   Overcast
2:52 AM 39.0 °F 33.4 °F 35.1 °F 86% 29.97 in 10.0 mi NNE 8.1 mph - 0.00 in   Overcast
3:52 AM 37.9 °F - 35.1 °F 89% 29.99 in 10.0 mi Calm Calm - 0.00 in Rain Light Rain
4:52 AM 37.0 °F 34.5 °F 35.1 °F 93% 30.00 in 10.0 mi East 3.5 mph - 0.01 in   Overcast
5:52 AM 37.0 °F - 34.0 °F 89% 30.03 in 10.0 mi Calm Calm - 0.01 in Rain Light Rain
6:06 AM 37.4 °F 34.9 °F 33.8 °F 87% 29.98 in 10.0 mi NNE 3.5 mph - 0.00 in Rain Light Rain
6:29 AM 35.6 °F 30.7 °F 33.8 °F 93% 29.97 in 10.0 mi NE 5.8 mph - 0.01 in Rain Light Rain
6:41 AM 35.6 °F 31.7 °F 33.8 °F 93% 29.98 in 10.0 mi NE 4.6 mph - 0.01 in Rain Light Rain
6:52 AM 35.1 °F 30.1 °F 33.1 °F 92% 30.02 in 10.0 mi NE 5.8 mph - 0.01 in Rain Light Rain
6:59 AM 35.6 °F 30.7 °F 33.8 °F 93% 29.98 in 10.0 mi ENE 5.8 mph - 0.01 in   Overcast
7:08 AM 33.8 °F 27.7 °F 32.0 °F 93% 29.98 in 10.0 mi ENE 6.9 mph - 0.01 in Rain Light Rain
7:27 AM 33.8 °F 27.7 °F 30.2 °F 87% 29.98 in 2.5 mi East 6.9 mph - 0.02 in Snow Light Snow
7:39 AM 33.8 °F 27.0 °F 30.2 °F 87% 29.98 in 3.0 mi East 8.1 mph - 0.03 in Snow Light Snow
7:52 AM 33.1 °F 26.9 °F 32.0 °F 96% 30.05 in 5.0 mi East 6.9 mph - 0.04 in Snow Light Snow
8:06 AM 33.8 °F 28.6 °F 30.2 °F 87% 29.98 in 10.0 mi East 5.8 mph - 0.00 in   Overcast
8:52 AM 33.1 °F - 32.0 °F 96% 30.04 in 4.0 mi Calm Calm - 0.01 in Snow Light Snow
9:02 AM 33.8 °F - 32.0 °F 93% 29.99 in 2.5 mi Calm Calm - 0.01 in Snow Light Snow
9:11 AM 33.8 °F 30.8 °F 32.0 °F 93% 30.00 in 4.0 mi NE 3.5 mph - 0.01 in Snow Light Snow
9:18 AM 33.8 °F 30.8 °F 32.0 °F 93% 30.00 in 3.0 mi NE 3.5 mph - 0.01 in Snow Light Snow
9:23 AM 33.8 °F 30.8 °F 32.0 °F 93% 30.00 in 1.8 mi ENE 3.5 mph - 0.01 in Snow Light Snow
9:52 AM 33.1 °F 28.7 °F 32.0 °F 96% 30.05 in 1.2 mi ENE 4.6 mph - 0.04 in Snow Light Snow
10:30 AM 33.8 °F 30.8 °F 32.0 °F 93% 29.98 in 0.8 mi SSE 3.5 mph - 0.03 in Snow Light Snow
10:34 AM 33.8 °F 30.8 °F 32.0 °F 93% 29.98 in 1.0 mi SSE 3.5 mph - 0.03 in Snow Light Snow
10:52 AM 33.1 °F - 32.0 °F 96% 30.04 in 1.2 mi Calm Calm - 0.05 in Snow Light Snow
11:06 AM 33.8 °F - 32.0 °F 93% 29.97 in 1.0 mi Calm Calm - 0.01 in Snow Light Snow
11:25 AM 33.8 °F - 32.0 °F 93% 29.96 in 1.5 mi Calm Calm - 0.02 in Snow Light Snow
11:35 AM 33.8 °F - 32.0 °F 93% 29.96 in 2.5 mi Calm Calm - 0.03 in Snow Light Snow
11:52 AM 33.1 °F 30.0 °F 32.0 °F 96% 30.01 in 2.5 mi ENE 3.5 mph - 0.04 in Snow Light Snow
12:06 PM 33.8 °F 29.6 °F 32.0 °F 93% 29.94 in 3.0 mi ENE 4.6 mph - 0.01 in Snow Light Snow
12:33 PM 33.8 °F 28.6 °F 32.0 °F 93% 29.93 in 2.5 mi ENE 5.8 mph - 0.02 in Snow Light Snow
12:42 PM 33.8 °F 30.8 °F 32.0 °F 93% 29.93 in 4.0 mi ENE 3.5 mph - 0.03 in Snow Light Snow
12:52 PM 34.0 °F 31.0 °F 32.0 °F 92% 29.99 in 3.0 mi ENE 3.5 mph - 0.03 in Snow Light Snow
12:59 PM 33.8 °F 29.6 °F 32.0 °F 93% 29.93 in 1.8 mi ENE 4.6 mph - 0.01 in Snow Light Snow
1:16 PM 33.8 °F 29.6 °F 32.0 °F 93% 29.94 in 0.8 mi NE 4.6 mph - 0.02 in Snow Light Snow
1:27 PM 33.8 °F 29.6 °F 32.0 °F 93% 29.93 in 1.0 mi ENE 4.6 mph - 0.02 in Snow Light Snow
1:36 PM 33.8 °F 29.6 °F 32.0 °F 93% 29.93 in 1.5 mi ENE 4.6 mph - 0.03 in Snow Light Snow
1:49 PM 33.8 °F 29.6 °F 32.0 °F 93% 29.93 in 0.8 mi ENE 4.6 mph - 0.04 in Snow Light Snow
1:52 PM 33.1 °F 28.7 °F 30.9 °F 92% 30.00 in 0.8 mi East 4.6 mph - 0.04 in Snow Light Snow
2:48 PM 32.0 °F 26.4 °F 30.2 °F 93% 29.95 in 1.0 mi ENE 5.8 mph - 0.03 in Snow Light Snow
2:49 PM 32.0 °F 26.4 °F 30.9 °F 96% 30.01 in 1.0 mi ENE 5.8 mph - 0.03 in Snow Light Snow
3:31 PM 33.8 °F 28.6 °F 30.2 °F 87% 29.95 in 2.5 mi ENE 5.8 mph - 0.03 in Snow Light Snow
3:39 PM 33.8 °F 28.6 °F 30.2 °F 87% 29.95 in 1.8 mi NE 5.8 mph - 0.03 in Snow Light Snow
3:52 PM 33.1 °F 26.1 °F 30.9 °F 92% 30.02 in 1.5 mi NE 8.1 mph - 0.03 in Snow Light Snow
3:59 PM 33.8 °F 27.0 °F 30.2 °F 87% 29.96 in 1.2 mi NE 8.1 mph - 0.01 in Snow Light Snow
4:15 PM 33.8 °F 26.4 °F 30.2 °F 87% 29.97 in 2.5 mi NE 9.2 mph - 0.01 in Snow Light Snow
4:22 PM 33.8 °F 27.0 °F 30.2 °F 87% 29.97 in 4.0 mi NE 8.1 mph - 0.01 in Snow Light Snow
4:36 PM 33.8 °F 27.0 °F 30.2 °F 87% 29.98 in 3.0 mi ENE 8.1 mph - 0.01 in Snow Light Snow
4:45 PM 32.0 °F 24.8 °F 30.2 °F 93% 29.98 in 2.5 mi ENE 8.1 mph - 0.01 in Snow Light Snow
4:52 PM 32.0 °F 24.2 °F 30.9 °F 96% 30.05 in 2.5 mi ENE 9.2 mph - 0.01 in Snow Light Snow
5:03 PM 32.0 °F 24.8 °F 30.2 °F 93% 29.99 in 4.0 mi ENE 8.1 mph - 0.01 in Snow Light Snow
5:24 PM 32.0 °F 24.8 °F 30.2 °F 93% 30.00 in 3.0 mi ENE 8.1 mph - 0.01 in Snow Light Snow
5:34 PM 32.0 °F 24.2 °F 30.2 °F 93% 30.01 in 2.0 mi ENE 9.2 mph - 0.01 in Snow Light Snow
5:52 PM 32.0 °F 25.6 °F 30.0 °F 92% 30.09 in 2.5 mi ENE 6.9 mph - 0.01 in Snow Light Snow
5:59 PM 32.0 °F 26.4 °F 30.2 °F 93% 30.03 in 3.0 mi ENE 5.8 mph - 0.00 in Snow Light Snow
6:52 PM 30.9 °F 22.2 °F 30.0 °F 96% 30.12 in 2.5 mi ENE 10.4 mph - 0.01 in Snow Light Snow
7:02 PM 30.2 °F 22.6 °F 30.2 °F 100% 30.04 in 3.0 mi ENE 8.1 mph - 0.00 in Snow Light Snow
7:09 PM 30.2 °F 21.3 °F 30.2 °F 100% 30.05 in 4.0 mi ENE 10.4 mph - 0.00 in Snow Light Snow
7:18 PM 30.2 °F 21.9 °F 28.4 °F 93% 30.05 in 4.0 mi ENE 9.2 mph - 0.00 in Snow Light Snow
7:52 PM 30.0 °F 20.0 °F 28.0 °F 92% 30.14 in 8.0 mi ENE 12.7 mph - 0.00 in Snow Light Snow
8:09 PM 30.2 °F 19.8 °F 26.6 °F 86% 30.06 in 7.0 mi ENE 13.8 mph - 0.00 in Snow Light Snow
8:22 PM 30.2 °F 21.9 °F 26.6 °F 86% 30.07 in 6.0 mi ENE 9.2 mph 18.4 mph 0.00 in Snow Light Snow
8:52 PM 28.9 °F 20.4 °F 27.0 °F 92% 30.18 in 1.8 mi ENE 9.2 mph - 0.00 in Snow Light Snow
9:18 PM 28.4 °F 22.2 °F 26.6 °F 93% 30.10 in 1.0 mi NE 5.8 mph - 0.00 in Snow Light Snow
9:48 PM 28.4 °F 20.4 °F 26.6 °F 93% 30.11 in 1.2 mi NE 8.1 mph - 0.00 in Snow Light Snow
9:52 PM 28.9 °F 21.1 °F 27.0 °F 92% 30.20 in 1.0 mi NE 8.1 mph - 0.00 in Snow Light Snow
10:52 PM 28.9 °F 21.1 °F 27.0 °F 92% 30.23 in 1.2 mi NE 8.1 mph - 0.00 in Snow Light Snow
11:52 PM 28.0 °F 20.8 °F 27.0 °F 96% 30.25 in 1.2 mi East 6.9 mph - 0.00 in Snow Light Snow